Regional Weather Roundup
Issued by NWS

Home | Current Version | Previous Version | Text Only | Print | Product List | Glossary Off
Versions: 1 2 3 4 5 6 7 8 9 10 11 12 13 14 15 16 17 18 19 20 21 22 23 24 25 26 27 28 29 30 31 32 33 34 35 36 37 38 39 40 41 42 43 44 45 46 47 48 49 50

587
ASUS43 KLOT 060803
RWRIL

ILLINOIS REGIONAL WEATHER ROUNDUP
NATIONAL WEATHER SERVICE CHICAGO/ROMEOVILLE IL
200 AM CST SAT FEB 06 2016

NOTE: "FAIR" INDICATES FEW OR NO CLOUDS BELOW 12,000 FEET WITH NO
SIGNIFICANT WEATHER AND/OR OBSTRUCTIONS TO VISIBILITY.

* THESE STATIONS ARE NOT UNDER NWS QUALITY CONTROL. THEY ALSO MAY NOT
  REPORT WEATHER SUCH AS PRECIPITATION OR FOG.

ILZ001-002-007-009-015-016-024-060900-
NORTHWEST ILLINOIS

CITY           SKY/WX    TMP DP  RH WIND       PRES   REMARKS
MOLINE         CLOUDY    29  22  75 SW5       30.29S WCI  24
STERLING*      CLOUDY    28  21  74 CALM      30.27R
$$

ILZ003-004-008-010-011-017-018-060900-
NORTH CENTRAL ILLINOIS

CITY           SKY/WX    TMP DP  RH WIND       PRES   REMARKS
ROCKFORD       CLOUDY    28  22  78 SW6       30.30R WCI  22
FREEPORT*      CLOUDY    27  23  84 SW7       30.29F WCI  20
$$

ILZ005-006-012>014-019>023-060900-
NORTHEAST ILLINOIS

CITY           SKY/WX    TMP DP  RH WIND       PRES   REMARKS
CHICAGO-OHARE  CLOUDY    27  22  81 SW7       30.28F WCI  19
CHICAGO-MIDWAY MOCLDY    27  20  75 SW6       30.30F WCI  20
AURORA         CLOUDY    27  23  85 S7        30.29F FOG     WCI  19
LANSING*       CLOUDY    24  22  93 S3        30.31F FOG
WAUKEGAN       PTCLDY    25  21  85 VRB5      30.26F WCI  19
DUPAGE AIRPORT CLOUDY    26  21  81 S7        30.28F WCI  18
WHEELING       CLOUDY    27  22  81 SW6       30.29F WCI  20
NORTHERLY ISL    N/A     28  22  78 SW7         N/A  WCI  21
$$

LMZ740>746-060900-
SOUTHERN LAKE MICHIGAN

STATION/POSITION SKY/WX   TEMP    WIND        PRES    VSBY  WAVE
                          AIR SEA DIR/SP/G                  HT/PER
                          (F)     (DEG/KT/KT) (MB)    (MI)  (FT/S)
HARRISON CRIB              30     260/  8/ 10   N/A
BURNHAM HARBOR             28     220/  5/ 11   N/A
CALUMET HARBOR             26     220/  4/  6 1025.6F
BURNS HARBOR               27     210/  8/ 10 1026.8F
MICHIGAN CITY              26     180/  7/  9   N/A
$$

ILZ025>027-034>036-040-047-049-050-058-095>099-060900-
WEST-CENTRAL ILLINOIS

CITY           SKY/WX    TMP DP  RH WIND       PRES   REMARKS
QUINCY         CLOUDY    31  21  66 S6        30.29S WCI  25
MACOMB*        CLOUDY    29  25  85 S3        30.32S
$$

ILZ028>032-037-038-041>044-048-051>054-059>061-060900-
CENTRAL ILLINOIS

CITY           SKY/WX    TMP DP  RH WIND       PRES   REMARKS
BLOOMINGTON    MOCLDY    23  22  96 S6        30.31S WCI  16
DECATUR        PTCLDY    25  21  85 CALM      30.32R
PEORIA         CLOUDY    25  20  81 CALM      30.31F
SPRINGFIELD    CLOUDY    30  25  81 S5        30.32S WCI  25
TAYLORVILLE    NOT AVBL
$$

ILZ033-039-045-046-055>057-062-063-060900-
EAST-CENTRAL ILLINOIS

CITY           SKY/WX    TMP DP  RH WIND       PRES   REMARKS
CHAMPAIGN      CLEAR     23  20  88 SE3       30.32R
MATTOON        CLOUDY    26  22  84 S8        30.32R WCI  18
$$

ILZ079-100>102-060900-
SOUTHWEST ILLINOIS

CITY           SKY/WX    TMP DP  RH WIND       PRES   REMARKS
BELLEVILLE     CLOUDY    25  21  83 CALM      30.32S
CAHOKIA*       CLOUDY    28  22  78 CALM      30.33S
SPARTA*        CLEAR     30  22  73 CALM      30.33F
$$

ILZ064>066-069>071-074>076-080>082-084>086-088>090-092>094-060900-
SOUTH-CENTRAL ILLINOIS

CITY           SKY/WX    TMP DP  RH WIND       PRES   REMARKS
CARBONDALE     CLEAR     25  20  81 SE3       30.33S
MT. VERNON     CLEAR     27  18  69 CALM      30.34R
CENTRALIA*     CLEAR     28  24  82 CALM      30.33R
SALEM*         CLEAR     29  23  77 CALM      30.34R
$$

ILZ067-068-072-073-078-083-087-091-060900-
SOUTHEAST ILLINOIS

CITY           SKY/WX    TMP DP  RH WIND       PRES   REMARKS
LAWRENCEVILLE  CLEAR     23  20  88 E3        30.35F
HARRISBURG*    CLEAR     30  25  84 E3        30.35S
ROBINSON*      CLEAR     21  19  93 CALM      30.36S
CARMI*         CLEAR     28  26  91 CALM      30.35S
$$

ABBREVIATIONS USED IN REMARKS
   TC - TEMPERATURE IN CELSIUS
  WCI - WIND CHILL INDEX
   HX - HEAT INDEX
  VSB - VISIBILITY
$$





USA.gov is the U.S. government's official web portal to all federal, state and local government web resources and services.